This is the latest recevied weather packets stored in our database for station/object KE8GJZ-1. If no packets are shown the sender has not sent any weather packets the latest 10 day(s).
| Time | Temp. | Humidity | Pressure | Rain* | Wind** | Luminosity | Snow |
|---|---|---|---|---|---|---|---|
| 1778013919 | 12.22° C | 58% | 1006 hPa | 0 mm | - | 117 W/m² | - |
| 1778013615 | 12.22° C | 60% | 1005.7 hPa | 0 mm | - | 139 W/m² | - |
| 1778013312 | 12.22° C | 60% | 1006.1 hPa | 0 mm | - | 92 W/m² | - |
| 1778013009 | 12.22° C | 61% | 1006.4 hPa | 0 mm | - | 100 W/m² | - |
| 1778012705 | 12.22° C | 60% | 1006.1 hPa | 0 mm | - | 102 W/m² | - |
| 1778012401 | 12.22° C | 64% | 1006.3 hPa | 0 mm | - | 97 W/m² | - |
| 1778012098 | 12.22° C | 59% | 1006 hPa | 0 mm | - | 104 W/m² | - |
| 1778011796 | 12.22° C | 64% | 1005.9 hPa | 0 mm | - | 100 W/m² | - |
| 1778011493 | 12.22° C | 63% | 1005.8 hPa | 0 mm | - | 101 W/m² | - |
| 1778011189 | 12.22° C | 61% | 1005.9 hPa | 0 mm | - | 78 W/m² | - |
| 1778010886 | 12.22° C | 65% | 1006.1 hPa | 0 mm | - | 71 W/m² | - |
| 1778010583 | 12.78° C | 62% | 1006 hPa | 0 mm | - | 68 W/m² | - |
| 1778010281 | 12.78° C | 62% | 1005.9 hPa | 0 mm | - | 76 W/m² | - |
| 1778009981 | 12.78° C | 62% | 1005.8 hPa | 0 mm | - | 98 W/m² | - |
| 1778009679 | 12.78° C | 60% | 1005.8 hPa | 0 mm | - | 127 W/m² | - |
| 1778009376 | 12.78° C | 64% | 1006.1 hPa | 0 mm | - | 203 W/m² | - |
| 1778009075 | 12.78° C | 61% | 1006.1 hPa | 0 mm | - | 150 W/m² | - |
| 1778008771 | 12.78° C | 60% | 1006.3 hPa | 0 mm | - | 157 W/m² | - |
| 1778008470 | 12.78° C | 65% | 1006.1 hPa | 0 mm | - | 133 W/m² | - |
| 1778008167 | 12.78° C | 65% | 1006.1 hPa | 0 mm | - | 140 W/m² | - |
| 1778007862 | 12.78° C | 68% | 1006.1 hPa | 0 mm | - | 129 W/m² | - |
| 1778007557 | 12.78° C | 65% | 1006.1 hPa | 0 mm | - | 163 W/m² | - |
| 1778007255 | 12.22° C | 64% | 1006.1 hPa | 0 mm | - | 137 W/m² | - |
| 1778006950 | 12.22° C | 65% | 1006.3 hPa | 0 mm | - | 121 W/m² | - |
| 1778006647 | 12.22° C | 65% | 1006.4 hPa | 0 mm | - | 127 W/m² | - |
* Rain latest hour (hover to see other rain measurements)
** Current wind speed in m/s (hover to see current wind gust speed)